Bucharest, Romania

6:44 AM EET on January 18, 2017 (GMT +0200)
Bucharest

Weather History for 15420 - April, 2009

Change the Weather History Date:

Sunday, April 26, 2009

  Actual Average Record
Temperature  
Mean Temperature 47 °F -  
Max Temperature 62 °F 73 °F - ()
Min Temperature 32 °F 50 °F - ()
Degree Days  
Heating Degree Days 18    
Moisture  
Dew Point 38 °F    
Average Humidity 68    
Maximum Humidity 100    
Minimum Humidity 21    
Precipitation  
Precipitation 0.00 in 0.09 in - ()
Sea Level Pressure  
Sea Level Pressure 30.31 in    
Wind  
Wind Speed 4 mph ()    
Max Wind Speed 17 mph    
Max Gust Speed -    
Visibility 6.0 miles    
Events Rain , Thunderstorm    
T = Trace of Precipitation, MM = Missing Value Source: Averaged Metar Reports

Daily Weather History Graph

Daily Weather History Graph

Search for Another Location

Airport or City:

Trip Planner

Search our weather history database for the weather conditions in past years. The results will help you decide how hot, cold, wet, or windy it might be!

Date:

Astronomy

Apr. 26, 2009 Rise Set
Actual Time 6:13 AM EEST 8:13 PM EEST
Civil Twilight 5:42 AM EEST 8:45 PM EEST
Nautical Twilight 5:03 AM EEST 9:24 PM EEST
Astronomical Twilight 4:21 AM EEST 10:06 PM EEST
Moon 6:26 AM EEST (4/26) 10:24 PM EEST (4/26)
Length of Visible Light 15h 03m
Length of Day
14h 00m
New Moon, 2% of the Moon is Illuminated
Apr 26
New Moon
May 1
First Quarter
May 9
Full
May 17
Last Quarter
May 24
New

Hourly Weather History & Observations

Time (EEST) Temp. Windchill Dew Point Humidity Pressure Visibility Wind Dir Wind Speed Gust Speed Precip Events Conditions
12:00 AM 44 °F - 38 °F 71% 30.32 in 6 mi ENE 4.5 mph - -   Overcast
12:00 AM 46.4 °F 43.5 °F 41.0 °F 81% 30.27 in 6.2 mi NE 5.8 mph - N/A   Mostly Cloudy
12:30 AM 46.4 °F 43.5 °F 41.0 °F 81% 30.27 in 6.2 mi NNE 5.8 mph - N/A   Scattered Clouds
1:00 AM 44 °F - 39 °F 75% 30.32 in 6 mi NE 4.5 mph - -   Overcast
1:00 AM 46.4 °F 43.5 °F 41.0 °F 81% 30.27 in 6.2 mi NNE 5.8 mph - N/A   Mostly Cloudy
1:30 AM 44.6 °F 42.2 °F 39.2 °F 81% 30.30 in 6.2 mi NNE 4.6 mph - N/A   Partly Cloudy
2:00 AM 42 °F - 38 °F 80% 30.33 in 6 mi NE 2.2 mph - -   Mostly Cloudy
2:00 AM 42.8 °F 41.1 °F 39.2 °F 87% 30.27 in - North 3.5 mph - N/A   Clear
2:30 AM 42.8 °F 39.3 °F 39.2 °F 87% 30.27 in - NNE 5.8 mph - N/A   Clear
3:00 AM 40 °F - 39 °F 96% 30.32 in 6 mi NE 4.5 mph - -   Partly Cloudy
3:00 AM 42.8 °F 38.6 °F 39.2 °F 87% 30.27 in - NNE 6.9 mph - N/A   Clear
3:30 AM 41.0 °F 37.1 °F 39.2 °F 93% 30.27 in - NNE 5.8 mph - N/A   Clear
4:00 AM 39 °F - 38 °F 97% 30.32 in 6 mi NNE 2.2 mph - -   Partly Cloudy
4:00 AM 41.0 °F - 39.2 °F 93% 30.30 in - North 2.3 mph - N/A   Clear
4:30 AM 41.0 °F - 39.2 °F 93% 30.30 in - North 2.3 mph - N/A   Clear
5:00 AM 35 °F - 35 °F 100% 30.33 in 6 mi North 2.2 mph - -  
5:00 AM 41.0 °F - 39.2 °F 93% 30.30 in - Variable 1.2 mph - N/A   Clear
5:30 AM 39.2 °F - 37.4 °F 93% 30.30 in - Variable 1.2 mph - N/A   Clear
6:00 AM 33 °F - 33 °F 100% 30.34 in 6 mi Calm Calm - -   Partly Cloudy
6:00 AM 37.4 °F - 37.4 °F 100% 30.30 in - WNW 2.3 mph - N/A   Clear
6:30 AM 39.2 °F - 37.4 °F 93% 30.30 in 5.0 mi West 2.3 mph - N/A   Unknown
7:00 AM 33 °F - 33 °F 99% 30.34 in 6 mi Calm Calm - -   Partly Cloudy
7:00 AM 39.2 °F - 37.4 °F 93% 30.30 in 5.0 mi Variable 2.3 mph - N/A   Unknown
7:30 AM 39.2 °F - 37.4 °F 93% 30.30 in 5.0 mi Variable 1.2 mph - N/A   Unknown
8:00 AM 38 °F - 38 °F 100% 30.35 in 6 mi NNW 2.2 mph - -   Mostly Cloudy
8:00 AM 42.8 °F - 39.2 °F 87% 30.33 in 5.0 mi Calm Calm - N/A   Unknown
8:30 AM 44.6 °F - 39.2 °F 81% 30.33 in - Calm Calm - N/A   Clear
9:00 AM 44 °F - 41 °F 85% 30.37 in 6 mi NW 2.2 mph - -   Mostly Cloudy
9:00 AM 46.4 °F - 41.0 °F 81% 30.33 in - Variable 2.3 mph - N/A   Clear
9:30 AM 50.0 °F - 39.2 °F 66% 30.33 in - Variable 2.3 mph - N/A   Clear
10:00 AM 51 °F - 36 °F 44% 30.37 in 6 mi NNW 2.2 mph - -   Scattered Clouds
10:00 AM 53.6 °F - 35.6 °F 51% 30.33 in - NNW 3.5 mph - N/A   Clear
10:30 AM 53.6 °F - 35.6 °F 51% 30.33 in - North 4.6 mph - N/A   Clear
11:00 AM 54 °F - 31 °F 29% 30.37 in 6 mi North 4.5 mph - -   Scattered Clouds
11:00 AM 53.6 °F - 35.6 °F 51% 30.33 in - NW 4.6 mph - N/A   Clear
11:30 AM 55.4 °F - 35.6 °F 47% 30.33 in - North 6.9 mph - N/A   Clear
12:00 PM 57 °F - 29 °F 23% 30.37 in 6 mi ENE 4.5 mph - -   Partly Cloudy
12:00 PM 57.2 °F - 35.6 °F 44% 30.33 in - NNE 6.9 mph - N/A   Clear
12:30 PM 57.2 °F - 35.6 °F 44% 30.33 in - NE 9.2 mph - N/A   Clear
1:00 PM 59 °F - 30 °F 21% 30.36 in 6 mi NE 8.9 mph - -   Mostly Cloudy
1:00 PM 59.0 °F - 37.4 °F 45% 30.33 in - NE 9.2 mph - N/A   Clear
1:30 PM 59.0 °F - 39.2 °F 48% 30.30 in - ENE 6.9 mph - N/A   Clear
2:00 PM 59 °F - 31 °F 22% 30.35 in 6 mi NE 6.7 mph - -   Mostly Cloudy
2:00 PM 59.0 °F - 37.4 °F 45% 30.30 in 6.2 mi ENE 3.5 mph - N/A   Scattered Clouds
2:30 PM 57.2 °F - 41.0 °F 55% 30.30 in 6.2 mi SE 4.6 mph - N/A   Partly Cloudy
3:00 PM 61 °F - 34 °F 25% 30.33 in 6 mi NE 4.5 mph - - Rain Light Rain Showers
3:00 PM 59.0 °F - 39.2 °F 48% 30.30 in 6.2 mi ENE 6.9 mph - N/A   Scattered Clouds
3:30 PM 59.0 °F - 35.6 °F 42% 30.27 in 6.2 mi NE 10.4 mph - N/A   Scattered Clouds
4:00 PM 60 °F - 31 °F 21% 30.32 in 6 mi ENE 8.9 mph - -   Mostly Cloudy
4:00 PM 60.8 °F - 37.4 °F 42% 30.27 in 6.2 mi NE 8.1 mph - N/A   Scattered Clouds
4:30 PM 59.0 °F - 41.0 °F 51% 30.27 in 6.2 mi NNE 17.3 mph - N/A   Scattered Clouds
5:00 PM 58 °F - 34 °F 28% 30.31 in 6 mi NNE 11.2 mph - -   Mostly Cloudy
5:00 PM 59.0 °F - 37.4 °F 45% 30.27 in 6.2 mi North 10.4 mph - N/A Thunderstorm Thunderstorm
5:30 PM 53.6 °F - 41.0 °F 62% 30.30 in 6.2 mi SE 10.4 mph - N/A Rain Light Rain Showers
6:00 PM 52 °F - 35 °F 41% 30.33 in 6 mi SSE 11.2 mph - - Rain Light Rain Showers
6:00 PM 53.6 °F - 44.6 °F 72% 30.27 in 6.2 mi Variable 2.3 mph - N/A   Scattered Clouds
6:30 PM 55.4 °F - 44.6 °F 67% 30.27 in 6.2 mi NW 3.5 mph - N/A   Scattered Clouds
7:00 PM 52 °F - 41 °F 56% 30.32 in 6 mi NW 4.5 mph - -   Partly Cloudy
7:00 PM 55.4 °F - 42.8 °F 63% 30.27 in 6.2 mi West 3.5 mph - N/A   Mostly Cloudy
7:30 PM 53.6 °F - 42.8 °F 67% 30.27 in 6.2 mi Variable 2.3 mph - N/A   Scattered Clouds
8:00 PM 52 °F - 39 °F 51% 30.30 in 6 mi WNW 2.2 mph - -   Partly Cloudy
8:00 PM 53.6 °F - 42.8 °F 67% 30.27 in - WNW 3.5 mph - N/A   Clear
8:30 PM 51.8 °F - 42.8 °F 71% 30.27 in - WNW 3.5 mph - N/A   Clear
9:00 PM 46 °F - 39 °F 70% 30.32 in 6 mi NNW 2.2 mph - -   Partly Cloudy
9:00 PM 51.8 °F - 42.8 °F 71% 30.27 in - Variable 2.3 mph - N/A   Clear
9:30 PM 50.0 °F - 42.8 °F 76% 30.30 in - Variable 2.3 mph - N/A   Clear
10:00 PM 44 °F - 42 °F 90% 30.33 in 6 mi NNW 4.5 mph - -   Scattered Clouds
10:00 PM 50.0 °F - 42.8 °F 76% 30.30 in - NW 3.5 mph - N/A   Clear
10:30 PM 48.2 °F - 42.8 °F 82% 30.30 in - NW 3.5 mph - N/A   Clear
11:00 PM 45 °F - 42 °F 84% 30.34 in 6 mi North 4.5 mph - -  
11:00 PM 48.2 °F - 42.8 °F 82% 30.30 in - Variable 2.3 mph - N/A   Clear
11:30 PM 46.4 °F - 42.8 °F 87% 30.30 in - Variable 1.2 mph - N/A   Clear